[[[{"header":{"parameterUnit":"kt","parameterCategory":2,"dx":1,"dy":1,"la1":30.253999710083008,"la2":30.299108505249023,"lo1":-89.0895004272461,"lo2":-89.04439544677734,"nx":28,"ny":28,"refTime":"2022-10-06T21:00:00:Z","depth":0,"parameterNumber":1,"parameterNumberName":"U-component_of_WINDS"},"data":[0.3335,0.3346,0.3358,0.3378,0.3392,0.3408,0.3417,0.3431,0.3446,0.3468,0.3483,0.3497,0.3517,0.354,0.3558,0.3564,0.3571,0.3567,0.3575,0.358,0.3581,0.3583,0.358,0.3568,0.3568,0.3569,0.3569,0.3569,0.3341,0.3354,0.3367,0.3388,0.34,0.3411,0.3429,0.3439,0.3453,0.3471,0.3486,0.3506,0.3524,0.3546,0.3566,0.3574,0.3581,0.3579,0.3579,0.3582,0.3587,0.3585,0.3573,0.3573,0.3573,0.3573,0.3573,0.3573,0.3354,0.336,0.3379,0.3394,0.3407,0.3421,0.343,0.3446,0.346,0.348,0.3492,0.3509,0.353,0.3559,0.3572,0.3587,0.3592,0.3593,0.3594,0.3594,0.3593,0.3593,0.3591,0.3591,0.3591,0.3591,0.3591,0,0.3368,0.3377,0.3389,0.3406,0.3417,0.3431,0.3446,0.3452,0.3476,0.3486,0.3503,0.3515,0.3538,0.3556,0.3577,0.3591,0.3604,0.3606,0.3608,0.3602,0.3596,0.3601,0.361,0.3606,0.3606,0.3606,0.3606,0.3606,0.3383,0.3388,0.3413,0.3421,0.3431,0.3443,0.3453,0.3473,0.3483,0.3505,0.351,0.3528,0.3543,0.3568,0.3588,0.3606,0.3612,0.361,0.3615,0.3611,0.3614,0.3613,0.3615,0.3608,0.3608,0.3608,0.3608,0,0.3391,0.3409,0.342,0.3444,0.345,0.3455,0.3477,0.3484,0.3498,0.3511,0.3515,0.3538,0.3554,0.3574,0.3597,0.3607,0.3619,0.3625,0.3613,0.3615,0.3616,0.3616,0.3612,0.3613,0.3625,0.3625,0.3625,0,0.3411,0.3417,0.3443,0.3449,0.3457,0.3477,0.3485,0.3497,0.3514,0.3524,0.3541,0.355,0.3574,0.3586,0.3601,0.3614,0.3618,0.3627,0.3631,0.3626,0.3625,0.3632,0.3632,0.3638,0.3638,0.3638,0.3638,0,0.3422,0.3442,0.3451,0.3459,0.3484,0.3489,0.35,0.3518,0.3527,0.3542,0.3549,0.3565,0.3575,0.3588,0.3606,0.3609,0.3623,0.363,0.3632,0.3631,0.3633,0.3633,0.3625,0.3638,0.3638,0.3638,0.3638,0,0.3441,0.3454,0.3464,0.3486,0.3491,0.3497,0.3514,0.3523,0.3541,0.355,0.3562,0.3576,0.3587,0.3594,0.3612,0.361,0.3619,0.3628,0.3629,0.3631,0.3638,0.3631,0.3621,0.3621,0.3634,0.3634,0.3634,0,0.3449,0.3463,0.3479,0.3489,0.3498,0.3516,0.3524,0.3538,0.3551,0.3562,0.3576,0.3588,0.3597,0.3603,0.3609,0.3625,0.3626,0.3625,0.3643,0.3643,0.3638,0.3629,0.3622,0.3621,0.3634,0.3634,0.3634,0,0.3457,0.3486,0.3486,0.3496,0.3516,0.3524,0.3532,0.3548,0.3554,0.3568,0.3576,0.3593,0.3601,0.3611,0.3623,0.3628,0.3626,0.3636,0.3636,0.3634,0.3635,0.3629,0.3628,0.3633,0.3634,0.3634,0.3634,0,0.3483,0.3492,0.3493,0.3512,0.352,0.3526,0.3545,0.3552,0.3563,0.3575,0.3587,0.3603,0.3619,0.3623,0.3633,0.3638,0.364,0.3648,0.3655,0.3648,0.3649,0.3649,0.3653,0.3654,0.3654,0.3654,0,0,0.3487,0.3499,0.3515,0.3523,0.3531,0.3549,0.3554,0.3564,0.3583,0.3589,0.3594,0.3619,0.3631,0.3644,0.3643,0.3649,0.3652,0.3653,0.3651,0.3651,0.3651,0.3651,0.3651,0.3655,0.3655,0.3655,0.3655,0,0.35,0.3511,0.3514,0.3526,0.3542,0.3555,0.3556,0.3575,0.3583,0.3594,0.3608,0.3618,0.3636,0.3648,0.3656,0.3652,0.3663,0.3656,0.3647,0.3654,0.3653,0.3652,0.3652,0.3652,0.3656,0.3656,0.3656,0,0.3512,0.3526,0.3529,0.3547,0.3558,0.3566,0.3579,0.3587,0.3594,0.3612,0.3622,0.3633,0.365,0.3658,0.3663,0.3667,0.3672,0.3673,0.3671,0.3672,0.3679,0.3678,0.3677,0.3689,0.3689,0.3689,0,0,0.3521,0.3528,0.3549,0.3551,0.3557,0.3575,0.3581,0.3591,0.3605,0.3611,0.3625,0.3638,0.365,0.3657,0.3668,0.3674,0.368,0.3676,0.3674,0.3673,0.3673,0.368,0.3679,0.3689,0.3689,0.3689,0,0,0.3525,0.3549,0.3556,0.3561,0.3573,0.3594,0.3595,0.3605,0.3616,0.3618,0.3636,0.3641,0.3649,0.3659,0.3659,0.3671,0.3678,0.3679,0.3664,0.3662,0.3661,0.3658,0.3674,0,0,0,0,0,0.3547,0.3546,0.3552,0.3556,0.3578,0.359,0.3593,0.3608,0.3613,0.3614,0.3628,0.3638,0.3663,0.3663,0.3667,0.3667,0.3691,0.3691,0.369,0.3673,0.3671,0.3669,0,0,0,0,0,0,0.3549,0.3553,0.3553,0.3572,0.3577,0.359,0.3602,0.3607,0.3614,0.3615,0.3635,0.3639,0.3652,0.3663,0.3666,0.3665,0.3673,0.3691,0.369,0.369,0.3672,0.3671,0.3669,0,0,0,0,0,0.355,0.3553,0.3584,0.3573,0.3577,0.3597,0.3603,0.3606,0.3612,0.3632,0.3636,0.3622,0.3651,0.3655,0.3665,0.3663,0.3671,0.3672,0.3691,0.369,0.369,0.3671,0,0,0,0,0,0,0.3551,0.3557,0.3585,0.3587,0.3574,0.3596,0.36,0.3606,0.3629,0.3632,0.362,0.3622,0.3651,0.3654,0.3657,0.3662,0.3669,0.3671,0.3671,0.369,0.369,0.369,0,0,0,0,0,0,0.3555,0.3558,0.3586,0.3587,0.3589,0.3596,0.3599,0.3609,0.3629,0.3616,0.3617,0.3621,0.3647,0.3653,0.3655,0.367,0.3668,0.3669,0.367,0.367,0.369,0.369,0,0,0,0,0,0,0.3557,0.356,0.3587,0.3588,0.359,0.3613,0.3605,0.3627,0.3628,0.3614,0.3629,0.3629,0.3646,0.3649,0.3654,0.3668,0.367,0.3668,0.3669,0.3669,0.367,0,0,0,0,0,0,0,0.3558,0.3536,0.3574,0.3589,0.3591,0.3605,0.3606,0.3606,0.3628,0.3629,0.3629,0.3629,0.3663,0.3664,0.3665,0.3667,0,0,0.3668,0.3669,0,0,0,0,0,0,0,0,0.3535,0.3536,0.3574,0.3574,0.3574,0.3605,0.3606,0.3606,0.3629,0.3629,0.3629,0.3629,0.3663,0.3664,0.3665,0,0,0,0,0,0,0,0,0,0,0,0,0,0,0,0.3574,0.3574,0,0.3605,0.3606,0.3606,0.3629,0.3629,0.3629,0.3629,0.3663,0.3664,0.3665,0,0,0,0,0,0,0,0,0,0,0,0,0,0,0,0,0,0,0,0,0,0,0,0,0,0,0,0,0,0,0,0,0,0,0,0,0,0,0,0,0,0,0,0,0,0,0,0,0,0,0,0,0,0,0,0,0,0,0,0,0,0,0,0,0,0,0,0,0]}],[{"header":{"parameterUnit":"kt","parameterCategory":2,"dx":1,"dy":1,"la1":30.253999710083008,"la2":30.299108505249023,"lo1":-89.0895004272461,"lo2":-89.04439544677734,"nx":28,"ny":28,"refTime":"2022-10-06T21:00:00:Z","depth":0,"parameterNumber":2,"parameterNumberName":"V-component_of_WINDS"},"data":[-3.4993,-3.5092,-3.5111,-3.5233,-3.5271,-3.5358,-3.5395,-3.5446,-3.549,-3.5596,-3.566,-3.5689,-3.574,-3.5821,-3.5891,-3.5902,-3.5931,-3.5954,-3.5963,-3.5846,-3.5831,-3.5817,-3.5796,-3.5959,-3.596,-3.6082,-3.6083,-3.6084,-3.491,-3.4949,-3.5018,-3.5099,-3.5159,-3.515,-3.5213,-3.5264,-3.5341,-3.5396,-3.546,-3.5554,-3.563,-3.5674,-3.5751,-3.5798,-3.5798,-3.5818,-3.5815,-3.5823,-3.5699,-3.5676,-3.5817,-3.5817,-3.5817,-3.5817,-3.5817,-3.5817,-3.4765,-3.4823,-3.4883,-3.4958,-3.5003,-3.5057,-3.5116,-3.515,-3.5217,-3.5299,-3.5307,-3.5395,-3.5453,-3.5553,-3.559,-3.5659,-3.564,-3.5667,-3.5675,-3.5682,-3.5688,-3.5513,-3.5673,-3.5672,-3.5672,-3.5672,-3.5671,0,-3.4665,-3.4677,-3.4744,-3.4818,-3.4873,-3.4931,-3.4988,-3.5024,-3.5054,-3.5108,-3.5189,-3.5238,-3.5336,-3.5413,-3.5488,-3.5521,-3.5516,-3.5517,-3.5536,-3.5534,-3.5525,-3.5533,-3.5332,-3.5512,-3.551,-3.5509,-3.5509,-3.5508,-3.4521,-3.4586,-3.4656,-3.47,-3.4735,-3.4807,-3.4853,-3.4874,-3.4922,-3.4994,-3.5044,-3.5121,-3.5184,-3.5309,-3.5346,-3.5418,-3.5416,-3.5484,-3.5427,-3.5424,-3.542,-3.5417,-3.5424,-3.5494,-3.5496,-3.5498,-3.5499,0,-3.444,-3.4469,-3.4574,-3.4636,-3.4653,-3.472,-3.4773,-3.4831,-3.4856,-3.4939,-3.496,-3.4999,-3.5077,-3.5103,-3.5196,-3.5208,-3.532,-3.5315,-3.5301,-3.5302,-3.5366,-3.5361,-3.5567,-3.5596,-3.5424,-3.5426,-3.5427,0,-3.4329,-3.4412,-3.4451,-3.451,-3.4603,-3.4621,-3.4713,-3.4744,-3.4793,-3.4858,-3.4856,-3.4918,-3.4941,-3.5006,-3.5023,-3.5118,-3.5135,-3.515,-3.5153,-3.5151,-3.5149,-3.5177,-3.5169,-3.5156,-3.5155,-3.5154,-3.5153,0,-3.4198,-3.4315,-3.4411,-3.4442,-3.4515,-3.456,-3.4592,-3.4646,-3.469,-3.4752,-3.4781,-3.4851,-3.4889,-3.4944,-3.4964,-3.4925,-3.5081,-3.5031,-3.5096,-3.5096,-3.5129,-3.5127,-3.5303,-3.5152,-3.5152,-3.5151,-3.5151,0,-3.4113,-3.4175,-3.4309,-3.437,-3.44,-3.4462,-3.4533,-3.4592,-3.4649,-3.4664,-3.4712,-3.4713,-3.4796,-3.4746,-3.4862,-3.4806,-3.4844,-3.4865,-3.487,-3.488,-3.4823,-3.4921,-3.5084,-3.5103,-3.4889,-3.4887,-3.4885,0,-3.3958,-3.4099,-3.4115,-3.4242,-3.4311,-3.4305,-3.4374,-3.4424,-3.4449,-3.4511,-3.4538,-3.4608,-3.4576,-3.4601,-3.4655,-3.4686,-3.4759,-3.4676,-3.4768,-3.4771,-3.4755,-3.4905,-3.4924,-3.5045,-3.4857,-3.486,-3.4862,0,-3.384,-3.3926,-3.3947,-3.3984,-3.4051,-3.4108,-3.4188,-3.4261,-3.4302,-3.4357,-3.4425,-3.4522,-3.4503,-3.4544,-3.4551,-3.4606,-3.471,-3.4577,-3.4579,-3.4602,-3.4844,-3.4862,-3.4882,-3.4703,-3.4706,-3.4709,-3.484,0,-3.3709,-3.3782,-3.384,-3.3917,-3.3965,-3.4044,-3.407,-3.4117,-3.412,-3.4143,-3.4242,-3.4287,-3.4361,-3.4389,-3.4391,-3.4508,-3.4492,-3.4469,-3.4422,-3.4519,-3.4564,-3.4581,-3.4355,-3.4353,-3.4352,-3.4351,0,0,-3.3553,-3.3658,-3.3671,-3.3748,-3.3789,-3.378,-3.3863,-3.3901,-3.3978,-3.4007,-3.3981,-3.4125,-3.4162,-3.428,-3.4312,-3.4341,-3.4365,-3.4328,-3.4472,-3.4486,-3.4498,-3.4545,-3.4563,-3.435,-3.4349,-3.4349,-3.4348,0,-3.3511,-3.3549,-3.3629,-3.367,-3.373,-3.3751,-3.377,-3.3828,-3.3846,-3.3942,-3.3932,-3.3994,-3.4107,-3.4149,-3.4185,-3.4315,-3.4304,-3.4335,-3.4398,-3.4461,-3.4476,-3.4489,-3.4537,-3.4554,-3.4346,-3.4346,-3.4346,0,-3.3401,-3.3443,-3.3484,-3.3575,-3.3614,-3.3683,-3.3641,-3.3715,-3.3767,-3.3751,-3.3846,-3.3874,-3.3931,-3.4037,-3.4085,-3.4063,-3.4248,-3.4192,-3.42,-3.4206,-3.4268,-3.4285,-3.4301,-3.4093,-3.4092,-3.4092,0,0,-3.336,-3.3427,-3.3478,-3.3567,-3.3593,-3.3623,-3.3662,-3.3668,-3.372,-3.374,-3.3775,-3.3825,-3.3892,-3.3934,-3.3997,-3.411,-3.4124,-3.416,-3.4172,-3.4182,-3.4193,-3.4257,-3.4275,-3.4088,-3.4088,-3.4088,0,0,-3.3341,-3.3403,-3.3396,-3.3503,-3.3553,-3.3608,-3.3662,-3.3655,-3.3714,-3.3707,-3.372,-3.3734,-3.3833,-3.3861,-3.3809,-3.3981,-3.3934,-3.3946,-3.396,-3.3975,-3.3987,-3.3978,-3.377,0,0,0,0,0,-3.3309,-3.3395,-3.3389,-3.341,-3.3523,-3.3612,-3.3626,-3.3639,-3.3606,-3.3649,-3.3678,-3.3662,-3.3836,-3.379,-3.3811,-3.3869,-3.404,-3.4049,-3.4057,-3.41,-3.4116,-3.413,0,0,0,0,0,0,-3.3318,-3.3344,-3.3386,-3.3445,-3.347,-3.3609,-3.3556,-3.3562,-3.3602,-3.3598,-3.3657,-3.3664,-3.3676,-3.378,-3.3799,-3.3854,-3.3764,-3.4044,-3.4051,-3.4057,-3.4106,-3.4119,-3.413,0,0,0,0,0,-3.3325,-3.3346,-3.3524,-3.3444,-3.3466,-3.3504,-3.3553,-3.3557,-3.3589,-3.3632,-3.3638,-3.3595,-3.3678,-3.3694,-3.3791,-3.3845,-3.3751,-3.3758,-3.4048,-3.4054,-3.4059,-3.4112,0,0,0,0,0,0,-3.333,-3.3351,-3.3529,-3.3536,-3.3412,-3.3496,-3.351,-3.3553,-3.362,-3.3627,-3.3569,-3.3565,-3.368,-3.3692,-3.3705,-3.3841,-3.374,-3.3747,-3.3752,-3.4053,-3.4057,-3.4061,0,0,0,0,0,0,-3.334,-3.3357,-3.3533,-3.3492,-3.3494,-3.3489,-3.3502,-3.3585,-3.3621,-3.3554,-3.3552,-3.3567,-3.366,-3.3691,-3.3701,-3.3831,-3.3732,-3.3739,-3.3744,-3.3747,-3.4056,-3.406,0,0,0,0,0,0,-3.3347,-3.3362,-3.349,-3.3492,-3.3494,-3.3577,-3.3563,-3.3678,-3.3587,-3.3551,-3.3579,-3.3575,-3.3659,-3.367,-3.3698,-3.3824,-3.3829,-3.3732,-3.3737,-3.374,-3.3742,0,0,0,0,0,0,0,-3.3354,-3.3249,-3.3486,-3.3492,-3.3494,-3.3604,-3.3606,-3.3607,-3.3586,-3.3583,-3.3579,-3.3577,-3.3693,-3.3701,-3.3708,-3.3818,0,0,-3.3732,-3.3735,0,0,0,0,0,0,0,0,-3.3243,-3.3248,-3.3486,-3.3488,-3.3489,-3.3604,-3.3605,-3.3607,-3.3585,-3.3583,-3.358,-3.3578,-3.3695,-3.3701,-3.3707,0,0,0,0,0,0,0,0,0,0,0,0,0,0,0,-3.3486,-3.3488,0,-3.3604,-3.3605,-3.3607,-3.3585,-3.3583,-3.3581,-3.3579,-3.3697,-3.3702,-3.3707,0,0,0,0,0,0,0,0,0,0,0,0,0,0,0,0,0,0,0,0,0,0,0,0,0,0,0,0,0,0,0,0,0,0,0,0,0,0,0,0,0,0,0,0,0,0,0,0,0,0,0,0,0,0,0,0,0,0,0,0,0,0,0,0,0,0,0,0,0]}]]]